[[{"header":{"parameterUnit":"m.s-1","parameterCategory":1,"la1":30.2991,"la2":30.254,"lo1":-89.0895,"lo2":-89.0444,"dy":0.0017,"dx":0.0017,"nx":28,"ny":28,"refTime":"2025-09-05T03:00:00:Z","depth":0,"parameterNumber":2,"parameterNumberName":"U-component_of_WINDS"},"data":[0,0,0,0,0,0,0,0,0,0,0,0,0,0,0,0,0,0,0,0,0,0,0,0,0,0,0,0,0,0,0,0,0,0,0,0,0,0,0,0,0,0,0,0,0,0,0,0,0,0,0,0,0,0,0,0,0,0,0.9426,0.9425,0,0.9408,0.9408,0.9408,0.9393,0.9393,0.9393,0.9392,0.9373,0.9373,0.9373,0,0,0,0,0,0,0,0,0,0,0,0,0,0.9442,0.9442,0.9426,0.9425,0.9425,0.9408,0.9408,0.9408,0.9393,0.9393,0.9392,0.9392,0.9374,0.9373,0.9373,0,0,0,0,0,0,0,0,0,0,0,0,0,0.9431,0.9442,0.9426,0.9416,0.9415,0.9408,0.9408,0.9408,0.9393,0.9393,0.9392,0.9392,0.9374,0.9373,0.9373,0.9375,0,0,0.9371,0.9371,0,0,0,0,0,0,0,0,0.9432,0.9431,0.9417,0.9416,0.9415,0.9403,0.9407,0.9397,0.9393,0.9401,0.9392,0.9392,0.9383,0.9382,0.9379,0.9374,0.9373,0.9371,0.9371,0.937,0.937,0,0,0,0,0,0,0,0.9433,0.9431,0.9419,0.9417,0.9416,0.9411,0.9409,0.9405,0.9394,0.94,0.9399,0.9397,0.9383,0.938,0.9379,0.9373,0.9371,0.9371,0.937,0.937,0.9365,0.9365,0,0,0,0,0,0,0.9435,0.9432,0.9419,0.9418,0.9423,0.9411,0.9409,0.9407,0.9394,0.9392,0.9398,0.9397,0.9381,0.9379,0.9378,0.9378,0.937,0.937,0.937,0.9365,0.9365,0.9365,0,0,0,0,0,0,0.9436,0.9434,0.942,0.9425,0.9423,0.9411,0.9409,0.9407,0.9404,0.9392,0.9389,0.9397,0.938,0.9379,0.9375,0.9377,0.937,0.9369,0.9364,0.9365,0.9365,0.9378,0,0,0,0,0,0,0.9436,0.9435,0.9436,0.9425,0.9422,0.9418,0.9409,0.9406,0.9403,0.9402,0.9391,0.9388,0.938,0.9376,0.9374,0.9376,0.9369,0.9364,0.9365,0.9365,0.9377,0.9379,0.938,0,0,0,0,0,0.9437,0.9441,0.9436,0.9435,0.9424,0.9419,0.9417,0.9408,0.9403,0.9404,0.9396,0.9389,0.9377,0.9376,0.9374,0.9375,0.9364,0.9364,0.9365,0.9377,0.9379,0.938,0,0,0,0,0,0,0.9452,0.9439,0.9434,0.9435,0.9428,0.9416,0.9417,0.941,0.9404,0.9403,0.9391,0.9389,0.9386,0.938,0.9379,0.9375,0.9369,0.9369,0.9379,0.938,0.9382,0.9383,0.9368,0,0,0,0,0,0.9456,0.9453,0.9441,0.9443,0.944,0.9429,0.9426,0.9419,0.9412,0.9409,0.94,0.9393,0.9387,0.9383,0.9378,0.9376,0.9373,0.9376,0.9377,0.9379,0.9379,0.9375,0.9376,0.9366,0.9366,0.9366,0,0,0.9463,0.9455,0.9455,0.9446,0.944,0.9436,0.9427,0.9424,0.942,0.9408,0.9404,0.9397,0.9388,0.9385,0.9383,0.938,0.938,0.9379,0.938,0.9379,0.9376,0.9377,0.9378,0.9367,0.9367,0.9366,0,0,0.9474,0.9469,0.9468,0.9462,0.9453,0.9445,0.9445,0.9434,0.9429,0.9425,0.9415,0.941,0.9401,0.9394,0.9389,0.9395,0.9387,0.9393,0.94,0.9397,0.9397,0.9398,0.9399,0.9399,0.9393,0.9393,0.9393,0,0.9484,0.9479,0.9469,0.9466,0.9461,0.945,0.9448,0.9443,0.9432,0.9429,0.9425,0.9412,0.9405,0.9399,0.94,0.9397,0.9396,0.9395,0.9398,0.9399,0.9399,0.94,0.94,0.9394,0.9394,0.9394,0.9394,0,0.949,0.9487,0.9487,0.9477,0.9473,0.9471,0.9459,0.9456,0.9449,0.9441,0.9435,0.9426,0.9417,0.9415,0.9409,0.9408,0.9406,0.9401,0.9395,0.9401,0.9401,0.9401,0.9395,0.9395,0.9395,0.9394,0,0,0.9512,0.9495,0.9495,0.9489,0.9477,0.9474,0.947,0.9461,0.9458,0.945,0.9446,0.9437,0.9432,0.9426,0.9418,0.9416,0.9419,0.9411,0.941,0.9412,0.9416,0.9419,0.942,0.9414,0.9414,0.9414,0.9416,0,0.952,0.9513,0.9503,0.95,0.9495,0.9483,0.948,0.9471,0.9463,0.9457,0.9448,0.9442,0.9436,0.9432,0.9429,0.9419,0.942,0.9419,0.9409,0.9409,0.9411,0.942,0.9425,0.9427,0.9416,0.9416,0.9416,0,0.9529,0.9521,0.9517,0.9504,0.9501,0.9499,0.9489,0.9484,0.9473,0.9467,0.946,0.9452,0.9446,0.944,0.9431,0.9431,0.9426,0.942,0.942,0.9418,0.9413,0.9418,0.9428,0.9428,0.9416,0.9416,0.9416,0,0.9543,0.9532,0.9528,0.9523,0.9508,0.9506,0.9499,0.9488,0.9483,0.9474,0.947,0.9461,0.9455,0.9448,0.9436,0.9433,0.9427,0.9421,0.9421,0.9421,0.9421,0.9421,0.9429,0.9418,0.9418,0.9418,0.9418,0,0.9552,0.955,0.9533,0.9531,0.9527,0.9515,0.9511,0.9503,0.9493,0.9488,0.9477,0.9472,0.9457,0.945,0.944,0.9433,0.9431,0.9425,0.9423,0.9426,0.9426,0.9422,0.9422,0.9418,0.9418,0.9418,0.9418,0,0.9568,0.9557,0.9551,0.9536,0.9532,0.953,0.9517,0.9513,0.9504,0.9497,0.9495,0.9481,0.9471,0.9459,0.9446,0.9439,0.9433,0.9429,0.9436,0.9435,0.9435,0.9435,0.9441,0.944,0.9431,0.9431,0.9431,0,0.9574,0.9572,0.9557,0.9552,0.9546,0.9539,0.9534,0.9521,0.9515,0.9502,0.9499,0.9489,0.948,0.9466,0.9453,0.9443,0.9438,0.9441,0.9437,0.944,0.9437,0.9437,0.9436,0.9442,0.9442,0.9442,0.9442,0,0.9586,0.9581,0.9573,0.9564,0.9557,0.9549,0.954,0.9537,0.9522,0.9516,0.9506,0.9499,0.9485,0.9474,0.9462,0.9454,0.9445,0.9444,0.9443,0.9446,0.945,0.9447,0.9439,0.9444,0.9444,0.9444,0.9443,0.9443,0.9597,0.9593,0.9582,0.9573,0.9565,0.9557,0.9552,0.9542,0.9534,0.9522,0.9514,0.9505,0.9492,0.9474,0.9466,0.9458,0.9455,0.9454,0.9453,0.9453,0.9454,0.9452,0.9455,0.9455,0.9455,0.9455,0.9455,0,0.9607,0.9599,0.9591,0.9579,0.9572,0.9565,0.9554,0.9548,0.954,0.9529,0.952,0.9508,0.9498,0.9484,0.9472,0.9468,0.9463,0.9465,0.9465,0.9463,0.9458,0.9459,0.9469,0.9469,0.9469,0.9469,0.9469,0.9469,0.9612,0.9606,0.9598,0.9587,0.9578,0.9569,0.9563,0.9555,0.9546,0.9533,0.9524,0.9516,0.9503,0.949,0.9479,0.9476,0.9471,0.9474,0.9469,0.9465,0.9463,0.9462,0.9463,0.9473,0.9473,0.9474,0.9474,0.9474]},{"header":{"parameterUnit":"m.s-1","parameterCategory":1,"la1":30.2991,"la2":30.254,"lo1":-89.0895,"lo2":-89.0444,"dy":0.0017,"dx":0.0017,"nx":28,"ny":28,"refTime":"2025-09-05T03:00:00:Z","depth":0,"parameterNumber":3,"parameterNumberName":"V-component_of_WINDS"},"data":[0,0,0,0,0,0,0,0,0,0,0,0,0,0,0,0,0,0,0,0,0,0,0,0,0,0,0,0,0,0,0,0,0,0,0,0,0,0,0,0,0,0,0,0,0,0,0,0,0,0,0,0,0,0,0,0,0,0,3.8665,3.8664,0,3.8644,3.8644,3.8644,3.8586,3.8584,3.8583,3.8582,3.8561,3.8561,3.8562,0,0,0,0,0,0,0,0,0,0,0,0,0,3.8651,3.8651,3.8665,3.8664,3.8664,3.8645,3.8644,3.8644,3.8586,3.8584,3.8583,3.8581,3.856,3.8561,3.8562,0,0,0,0,0,0,0,0,0,0,0,0,0,3.8646,3.8651,3.8665,3.8633,3.863,3.8645,3.8644,3.8644,3.8586,3.8584,3.8582,3.8581,3.856,3.8561,3.8562,3.8606,0,0,3.8565,3.8565,0,0,0,0,0,0,0,0,3.8647,3.8647,3.8638,3.8635,3.8632,3.8616,3.8631,3.8631,3.8587,3.8603,3.8582,3.858,3.858,3.858,3.858,3.8605,3.8604,3.8565,3.8565,3.8566,3.8566,0,0,0,0,0,0,0,3.8647,3.8647,3.8657,3.8638,3.8634,3.8619,3.8616,3.8631,3.8602,3.8601,3.8597,3.8595,3.8578,3.8579,3.8579,3.8604,3.8565,3.8566,3.8566,3.8567,3.866,3.8662,0,0,0,0,0,0,3.8652,3.8648,3.8657,3.8656,3.8635,3.8621,3.8618,3.8623,3.8602,3.8597,3.8597,3.8593,3.8579,3.8578,3.8578,3.8626,3.8566,3.8567,3.8567,3.8659,3.8661,3.8663,0,0,0,0,0,0,3.8652,3.8653,3.8658,3.8651,3.865,3.8623,3.8629,3.8623,3.8624,3.8599,3.8593,3.8603,3.8577,3.8577,3.8599,3.8624,3.8567,3.8568,3.8656,3.8659,3.8662,3.8723,0,0,0,0,0,0,3.8652,3.8654,3.8671,3.8652,3.8651,3.868,3.8631,3.8624,3.8626,3.862,3.8603,3.8599,3.8576,3.8598,3.86,3.8624,3.8569,3.8654,3.8658,3.8661,3.8718,3.8727,3.8735,0,0,0,0,0,3.8652,3.8689,3.8672,3.8673,3.8672,3.8681,3.8681,3.8654,3.8628,3.8644,3.8628,3.8599,3.8622,3.86,3.8602,3.8628,3.8652,3.8657,3.8661,3.8714,3.8726,3.8735,0,0,0,0,0,0,3.8712,3.8686,3.8667,3.8699,3.8693,3.8672,3.8691,3.8667,3.8667,3.8662,3.8628,3.8624,3.8651,3.8642,3.8619,3.8667,3.8632,3.8637,3.8672,3.8682,3.8691,3.8691,3.8569,0,0,0,0,0,3.8729,3.874,3.8717,3.8748,3.8745,3.8719,3.8722,3.8702,3.8694,3.8691,3.8676,3.8669,3.8674,3.8678,3.8682,3.8717,3.8711,3.8735,3.8744,3.8751,3.8755,3.877,3.878,3.8677,3.8677,3.8677,0,0,3.8765,3.8752,3.8761,3.8759,3.8752,3.8762,3.8717,3.8731,3.8738,3.8693,3.8712,3.8701,3.8691,3.8719,3.8731,3.8712,3.8782,3.8756,3.8762,3.8762,3.8776,3.8785,3.8794,3.868,3.868,3.8679,0,0,3.8834,3.8827,3.885,3.8843,3.8833,3.8815,3.8821,3.8803,3.8794,3.8812,3.8778,3.8786,3.8796,3.8789,3.8787,3.8853,3.8825,3.8855,3.8898,3.8914,3.8922,3.8928,3.8949,3.8957,3.886,3.886,3.886,0,3.8879,3.8894,3.8865,3.8881,3.888,3.884,3.8862,3.8857,3.8849,3.8849,3.8828,3.8839,3.8829,3.8854,3.887,3.887,3.8874,3.8856,3.8923,3.893,3.8936,3.8955,3.8963,3.8863,3.8863,3.8862,3.8862,0,3.8949,3.896,3.898,3.8972,3.8974,3.8993,3.8966,3.8972,3.8951,3.8935,3.8953,3.894,3.8939,3.8944,3.8925,3.8966,3.8954,3.8929,3.8892,3.8949,3.8967,3.8974,3.8868,3.8867,3.8866,3.8865,0,0,3.9055,3.903,3.9038,3.9032,3.9017,3.9025,3.9042,3.904,3.9044,3.904,3.9051,3.906,3.9036,3.9034,3.9013,3.9027,3.9077,3.9,3.8999,3.9012,3.9118,3.9135,3.9144,3.9059,3.9061,3.9062,3.9118,0,3.9119,3.9146,3.9119,3.9151,3.9159,3.9121,3.9135,3.9127,3.9112,3.9116,3.91,3.9106,3.9075,3.9073,3.9085,3.9068,3.9097,3.9064,3.9068,3.9068,3.9069,3.9154,3.9173,3.9226,3.9125,3.9126,3.9127,0,3.9196,3.9194,3.9226,3.9207,3.921,3.9223,3.9218,3.9224,3.9213,3.9201,3.9198,3.9173,3.9186,3.9152,3.9169,3.9147,3.9147,3.9139,3.914,3.9138,3.9099,3.9151,3.9243,3.925,3.9138,3.9137,3.9136,0,3.9267,3.9273,3.9292,3.9289,3.9268,3.9277,3.9269,3.9256,3.9257,3.9253,3.9252,3.9251,3.9249,3.9248,3.9222,3.92,3.9241,3.9206,3.923,3.9231,3.9239,3.9238,3.9329,3.9243,3.9243,3.9243,3.9243,0,3.9339,3.936,3.9323,3.9335,3.9356,3.9326,3.9347,3.9335,3.9324,3.9331,3.9299,3.9306,3.9273,3.9277,3.9257,3.9272,3.9273,3.9262,3.9256,3.9263,3.9264,3.9261,3.9256,3.9245,3.9245,3.9244,3.9244,0,3.9421,3.9398,3.9415,3.9394,3.9389,3.9405,3.9386,3.9395,3.9378,3.9388,3.9389,3.9362,3.9365,3.9339,3.9337,3.9323,3.9347,3.9336,3.9351,3.9346,3.9371,3.9368,3.9462,3.9471,3.9382,3.9383,3.9384,0,3.9467,3.9482,3.9462,3.9464,3.9457,3.9462,3.9462,3.9433,3.9434,3.9422,3.9432,3.9432,3.943,3.9436,3.9415,3.9413,3.94,3.9433,3.9399,3.9405,3.9397,3.9395,3.9395,3.9439,3.944,3.9441,3.9442,0,3.9551,3.9538,3.954,3.9536,3.9537,3.9533,3.9527,3.9531,3.9499,3.9501,3.9503,3.9502,3.9499,3.9498,3.9492,3.9482,3.9456,3.9453,3.9458,3.9465,3.9471,3.9465,3.9367,3.945,3.945,3.9449,3.9448,3.9448,3.9615,3.9625,3.9611,3.9613,3.9606,3.96,3.9607,3.9591,3.9592,3.9587,3.957,3.9574,3.9561,3.955,3.9543,3.9545,3.9529,3.9537,3.9538,3.954,3.9543,3.9473,3.9544,3.9544,3.9543,3.9543,3.9543,0,3.9694,3.9684,3.9686,3.9677,3.9679,3.9655,3.9646,3.9648,3.9653,3.9643,3.9642,3.9643,3.9642,3.9622,3.9618,3.9623,3.9611,3.9623,3.9621,3.9619,3.956,3.9554,3.9633,3.9633,3.9633,3.9633,3.9633,3.9633,3.9736,3.9751,3.9737,3.9747,3.9736,3.974,3.9737,3.9731,3.9723,3.9726,3.9725,3.9712,3.9697,3.9692,3.9689,3.9683,3.9682,3.9698,3.9687,3.9632,3.9623,3.9615,3.9609,3.9698,3.9698,3.9746,3.9746,3.9746]}]]